#timestamp,LO_Frequency 
1480770015.1,286046997.1
1480770016.0,286046997.1
1480770035.9,286047000.6
1480770055.8,286046995.6
1480770075.8,286046993.6
1480770095.7,286046996.5
1480770115.6,286046998.1
1480770135.5,286046997.6
1480770155.5,286046995.8
1480770175.4,286046999.3
1480770195.3,286046994.6
1480770215.2,286046994.6
1480770235.2,286046992.9
1480770255.1,286046993.4
1480770256.0,286046993.4
1480770275.0,286047003.9
1480770275.9,286047003.9
1480770295.9,286046989.7
1480770315.8,286046992.6
1480770335.7,286046994.4
1480770355.6,286046990.2
1480770375.6,286046990.4
1480770395.5,286046987.0
1480770415.4,286046990.0
1480770435.3,286046985.6
1480770455.3,286046989.2
1480770475.2,286046985.8
1480770495.1,286046986.3
1480770515.0,286046983.1
1480770516.0,286046983.1
1480770535.9,286047001.3
1480770555.8,286046987.6
1480770575.7,286046985.7
1480770595.7,286046989.1
1480770615.6,286046987.0
1480770635.5,286046988.0
1480770655.4,286046987.4
1480770675.4,286046989.2
1480770695.3,286046993.1
1480770715.2,286046987.0
1480770735.1,286046993.7
1480770755.1,286046993.0
1480770756.0,286046993.0
1480770775.9,286046998.6
1480770795.8,286046993.9
1480770815.8,286046993.4
1480770835.7,286046997.3
1480770855.6,286046995.5
1480770875.5,286046996.8
1480770895.5,286046996.1
1480770915.4,286046995.9
1480770935.3,286046994.2
1480770955.2,286046994.0
1480770975.2,286046995.8
1480770995.1,286046993.3
1480770996.0,286046993.3
1480771015.0,286047007.2
1480771015.9,286047007.2
1480771035.9,286046991.4
1480771055.8,286046997.2
1480771075.7,286047010.4
1480771095.6,286046995.3
1480771115.6,286046998.0
1480771135.5,286046994.1
1480771155.4,286046996.8
1480771175.3,286046996.7
1480771195.3,286046998.4
1480771215.2,286046995.4
1480771235.1,286046995.3
1480771255.0,286047000.6
1480771256.0,286047000.6
1480771275.9,286046999.2
1480771295.8,286046999.3
1480771315.7,286046994.8
1480771335.7,286046993.3
1480771355.6,286046997.8
1480771375.5,286046999.4
1480771395.4,286046999.1
1480771415.4,286046996.4
1480771435.3,286046995.8
1480771455.2,286047000.2
1480771475.1,286046998.9
1480771495.1,286046998.6
1480771496.0,286046998.6
1480771515.9,286046999.7
1480771535.8,286046999.3
1480771555.8,286046997.5
1480771575.7,286046997.1
1480771595.6,286047000.6
1480771615.5,286046997.4
1480771635.5,286046996.1
1480771655.4,286047000.9
1480771675.3,286046999.3
1480771695.2,286046999.2
1480771715.2,286047000.3
1480771735.1,286047000.9
1480771736.0,286047000.9
1480771755.0,286046998.9
1480771755.9,286046998.9
1480771775.9,286046998.1
1480771795.8,286047002.3
1480771815.7,286047000.2
1480771835.6,286047002.4
1480771855.6,286046998.8
1480771875.5,286047000.1
1480771895.4,286047001.5
1480771915.3,286047000.6
1480771935.3,286046997.8
1480771955.2,286046999.8
1480771975.1,286047001.8
1480771995.0,286047002.6
1480771996.0,286047002.6
1480772015.9,286046996.8
1480772035.8,286046999.0
1480772055.7,286046998.4
1480772075.7,286047001.3
1480772095.6,286047002.2
1480772115.5,286046996.5
1480772135.4,286047001.4
1480772155.4,286047002.8
1480772175.3,286046999.9
1480772195.2,286046999.6
1480772215.1,286047000.4
1480772235.1,286047003.1
1480772236.0,286047003.1
1480772255.9,286047001.2
1480772275.8,286047002.0
1480772295.8,286047002.2
1480772315.7,286046999.4
1480772335.6,286046997.3
1480772355.5,286046998.2
1480772375.5,286047000.3
1480772395.4,286047002.4
1480772415.3,286046998.5
1480772435.2,286047001.8
1480772455.2,286046999.9
1480772475.1,286047002.5
1480772476.0,286047002.5
1480772495.0,286046998.2
1480772495.9,286046998.2
1480772515.9,286047004.3
1480772535.8,286046999.2
1480772555.7,286047001.9
1480772575.6,286047002.1
1480772595.6,286047000.7
1480772615.5,286047001.5
1480772635.4,286047000.1
1480772655.3,286047000.1
1480772675.3,286047001.8
1480772695.2,286046998.2
1480772715.1,286047004.1
1480772735.0,286046998.6
1480772736.0,286046998.6
1480772755.9,286047002.4
1480772775.8,286047000.2
1480772795.7,286046999.7
1480772815.7,286047007.3
1480772835.6,286047002.7
1480772855.5,286047000.4
1480772875.4,286046998.9
1480772895.4,286047000.3
1480772915.3,286047002.1
1480772935.2,286047002.8
1480772955.2,286046999.9
1480772975.1,286047002.5
1480772976.0,286047002.5
1480772995.0,286046996.6
1480772995.9,286046996.6
1480773015.9,286047004.2
1480773035.8,286047002.7
1480773055.7,286047000.1
1480773075.6,286047002.2
1480773095.6,286047000.5
1480773115.5,286047001.1
1480773135.4,286047002.3
1480773155.3,286047002.7
1480773175.3,286047002.3
1480773195.2,286047000.3
1480773215.1,286047002.7
1480773235.0,286047000.6
1480773236.0,286047000.6
1480773255.9,286047002.1
1480773275.8,286047002.3
1480773295.7,286047000.8
1480773315.7,286047000.9
1480773335.6,286047000.4
1480773355.5,286047000.2
1480773375.4,286047004.4
1480773395.4,286046998.5
1480773415.3,286046999.9
1480773435.2,286047005.5
1480773455.1,286047002.6
1480773475.1,286047000.3
1480773476.0,286047000.3
1480773495.9,286047001.3
1480773515.8,286047006.4
1480773535.8,286047003.4
1480773555.7,286047004.6
1480773575.6,286047004.8
1480773595.5,286047004.7
